Погода в Новой Красавке

Россия / Саратовская область     51°33′08″N   44°56′26″E
темп.,
°C
ветер,
м/с
пор.,
м/с
влажн.,
%
обл.,
%
осадки,
мм/ч
давл.,
гПа
погр.,
м
18 мая, вт
вт1801:00+18вюв512459 0.0 1013178
04:00+16в511508 0.0 1013146
07:00+17в512585 0.0 1012204
10:00+24в713440 0.0 1011473
13:00+28вюв813340 0.0 10111053
16:00+29юв813310 0.0 10102407
19:00+25вюв614410 0.0 1009343
22:00+22вюв7183761 0.0 1010384
19 мая, ср
ср1901:00+19ююв345129 0.1 101063
04:00+17в3561100 0.1 101071
07:00+18ююв276699 0.0 1010226
10:00+23вюв61049100 0.0 1009469
13:00+27юв6104092 0.0 10091176
16:00+28юв7133713 0.0 10082346
19:00+25вюв4849100 0.0 1007187
22:00+20юз41071100 0.0 1009216
20 мая, чт
чт2001:00+15ююз3690100 0.8 1010130
04:00+14юз4109099 1.9 1012441
07:00+14ююз2486100 0.7 1011368
10:00+16ююз4574100 0.7 1012851
13:00+19ююз465699 0.1 10121626
16:00+18ююз466587 0.6 10121064
19:00+17юз467010 0.3 10121110
22:00+14юз35845 0.3 101382
21 мая, пт
пт2101:00+12юз39960 0.0 1013235
04:00+11юз389695 0.0 1014185
07:00+13юз48885 0.0 1016314
10:00+18зюз5663100 0.0 1017928
13:00+21зюз56529 0.0 10171461
16:00+23юз454731 0.0 10171883
19:00+21ююв2362100 0.0 101777
22:00+17вюв346498 0.0 101944
22 мая, сб
сб2201:00+17юв4960100 0.0 1018167
04:00+16вюв41062100 0.0 1018204
07:00+17вюв7166464 0.0 1017441
10:00+22юв8155584 0.0 1016715
13:00+26ююв913415 0.0 10151534
16:00+27ююв81342100 0.0 10141557
19:00+24юв41157100 0.0 1014260
22:00+23юв5134777 0.0 1015258